| time (UTC) | temp C | wind direction | speed KPH | gust KPH | rain 1hr cm | rain 24hr cm | rain mn cm | humidity % | barometer mb |
| 20260906103014 | 16 | 173 | 19.3 | 35.4 | 0.00 | 0.00 | 0.00 | 77 | 1031.1 |
| 20260906101514 | 16 | 182 | 14.5 | 22.5 | 0.00 | 0.00 | 0.00 | 80 | 1031.1 |
| 20260906100014 | 16 | 186 | 12.9 | 22.5 | 0.00 | 0.00 | 0.00 | 80 | 1031.2 |
| 20260906094514 | 16 | 186 | 12.9 | 25.7 | 0.00 | 0.00 | 0.00 | 80 | 1031.2 |
| 20260906093014 | 16 | 141 | 8.0 | 14.5 | 0.00 | 0.00 | 0.00 | 82 | 1031.3 |
| 20260906091514 | 15 | 170 | 9.7 | 14.5 | 0.00 | 0.00 | 0.00 | 82 | 1031.3 |
| 20260906090013 | 15 | 172 | 9.7 | 17.7 | 0.00 | 0.00 | 0.00 | 80 | 1031.3 |
| 20260906084514 | 16 | 128 | 6.4 | 14.5 | 0.00 | 0.00 | 0.00 | 78 | 1031.1 |
| 20260906083014 | 16 | 105 | 11.3 | 22.5 | 0.00 | 0.00 | 0.00 | 79 | 1031.2 |
| 20260906080013 | 16 | 197 | 8.0 | 20.9 | 0.00 | 0.00 | 0.00 | 74 | 1031.0 |
| 20260906074512 | 16 | 153 | 4.8 | 14.5 | 0.00 | 0.00 | 0.00 | 75 | 1031.0 |
| 20260906073019 | 16 | 179 | 4.8 | 9.7 | 0.00 | 0.00 | 0.00 | 74 | 1030.8 |
| 20260906071518 | 16 | 157 | 4.8 | 12.9 | 0.00 | 0.00 | 0.00 | 74 | 1030.8 |
| 20260906070019 | 15 | 138 | 6.4 | 12.9 | 0.00 | 0.00 | 0.00 | 77 | 1030.8 |
| 20260906064518 | 15 | 163 | 4.8 | 9.7 | 0.00 | 0.00 | 0.00 | 75 | 1030.6 |
| 20260906063017 | 15 | 179 | 4.8 | 8.0 | 0.00 | 0.00 | 0.00 | 73 | 1030.4 |
| 20260906061517 | 15 | 190 | 4.8 | 6.4 | 0.00 | 0.00 | 0.00 | 73 | 1030.3 |
| 20260906060019 | 15 | 117 | 4.8 | 9.7 | 0.00 | 0.00 | 0.00 | 68 | 1030.1 |
| 20260906054517 | 15 | 104 | 0.0 | 1.6 | 0.00 | 0.00 | 0.00 | 63 | 1029.8 |
| 20260906053017 | 15 | 103 | 3.2 | 6.4 | 0.00 | 0.00 | 0.00 | 68 | 1029.9 |
| 20260906051518 | 15 | 25 | 4.8 | 6.4 | 0.00 | 0.00 | 0.00 | 67 | 1029.8 |
| 20260906050017 | 15 | 1 | 3.2 | 6.4 | 0.00 | 0.00 | 0.00 | 63 | 1029.7 |
| 20260906044517 | 15 | 1 | 4.8 | 8.0 | 0.00 | 0.00 | 0.00 | 58 | 1029.6 |
| 20260906043016 | 15 | 331 | 4.8 | 8.0 | 0.00 | 0.00 | 0.00 | 62 | 1029.5 |
| 20260906041516 | 15 | 278 | 4.8 | 11.3 | 0.00 | 0.00 | 0.00 | 66 | 1029.5 |
| 20260906040017 | 15 | 1 | 8.0 | 14.5 | 0.00 | 0.00 | 0.00 | 58 | 1029.4 |
| 20260906034516 | 16 | 1 | 14.5 | 17.7 | 0.00 | 0.00 | 0.00 | 55 | 1029.1 |
| 20260906031516 | 16 | 1 | 12.9 | 17.7 | 0.00 | 0.00 | 0.00 | 58 | 1029.1 |
| 20260906030017 | 16 | 358 | 8.0 | 14.5 | 0.00 | 0.00 | 0.00 | 58 | 1029.2 |
| 20260906024515 | 16 | 1 | 12.9 | 17.7 | 0.00 | 0.00 | 0.00 | 57 | 1029.1 |
| 20260906023016 | 15 | 349 | 6.4 | 12.9 | 0.00 | 0.00 | 0.00 | 66 | 1029.4 |
| 20260906021516 | 16 | 1 | 11.3 | 16.1 | 0.00 | 0.00 | 0.00 | 58 | 1029.2 |
| 20260906020016 | 16 | 358 | 8.0 | 14.5 | 0.00 | 0.00 | 0.00 | 61 | 1029.0 |
| 20260906014515 | 16 | 1 | 9.7 | 16.1 | 0.00 | 0.00 | 0.00 | 58 | 1029.1 |
| 20260906013015 | 16 | 2 | 12.9 | 17.7 | 0.00 | 0.00 | 0.00 | 58 | 1029.0 |
| 20260906011515 | 16 | 1 | 14.5 | 19.3 | 0.00 | 0.00 | 0.00 | 62 | 1029.0 |
| 20260906010016 | 16 | 2 | 12.9 | 19.3 | 0.00 | 0.00 | 0.00 | 67 | 1029.1 |
| 20260906003014 | 16 | 1 | 12.9 | 17.7 | 0.00 | 0.00 | 0.00 | 65 | 1029.2 |
| 20260906001515 | 16 | 1 | 14.5 | 19.3 | 0.00 | 0.00 | 0.00 | 61 | 1029.1 |
| 20260906000015 | 16 | 1 | 14.5 | 17.7 | 0.00 | 0.00 | 0.00 | 65 | 1029.1 |
| 20260905234515 | 16 | 2 | 14.5 | 17.7 | 0.00 | 0.00 | 0.00 | 67 | 1029.2 |
| 20260905233014 | 16 | 357 | 9.7 | 14.5 | 0.00 | 0.00 | 0.00 | 65 | 1029.2 |
| 20260905231515 | 16 | 2 | 9.7 | 14.5 | 0.00 | 0.00 | 0.00 | 63 | 1029.1 |
| 20260905230015 | 16 | 3 | 9.7 | 14.5 | 0.00 | 0.00 | 0.00 | 69 | 1029.0 |
| 20260905224515 | 16 | 336 | 11.3 | 16.1 | 0.00 | 0.00 | 0.00 | 74 | 1029.0 |
| 20260905223014 | 16 | 334 | 9.7 | 16.1 | 0.00 | 0.00 | 0.00 | 74 | 1029.1 |
| 20260905221514 | 16 | 329 | 11.3 | 17.7 | 0.00 | 0.00 | 0.00 | 78 | 1028.9 |
| 20260905214514 | 16 | 359 | 9.7 | 16.1 | 0.00 | 0.00 | 0.00 | 78 | 1028.8 |
| 20260905213013 | 16 | 354 | 9.7 | 16.1 | 0.00 | 0.00 | 0.00 | 76 | 1028.8 |
| 20260905211514 | 17 | 342 | 9.7 | 14.5 | 0.00 | 0.00 | 0.00 | 74 | 1028.7 |
| 20260905210014 | 17 | 332 | 8.0 | 12.9 | 0.00 | 0.00 | 0.00 | 64 | 1028.6 |
| 20260905204513 | 17 | 1 | 14.5 | 20.9 | 0.00 | 0.00 | 0.00 | 60 | 1028.6 |
| 20260905203013 | 17 | 6 | 17.7 | 20.9 | 0.00 | 0.00 | 0.00 | 60 | 1028.5 |
| 20260905201513 | 17 | 7 | 17.7 | 24.1 | 0.00 | 0.00 | 0.00 | 61 | 1028.5 |
| 20260905194513 | 17 | 7 | 19.3 | 22.5 | 0.00 | 0.00 | 0.00 | 66 | 1028.2 |
| 20260905193015 | 17 | 2 | 19.3 | 22.5 | 0.00 | 0.00 | 0.00 | 68 | 1028.3 |
| 20260905190016 | 17 | 6 | 16.1 | 19.3 | 0.00 | 0.00 | 0.00 | 80 | 1028.2 |
| 20260905183015 | 17 | 99 | 3.2 | 6.4 | 0.00 | 0.00 | 0.00 | 81 | 1027.9 |
| 20260905181515 | 16 | 100 | 3.2 | 4.8 | 0.00 | 0.00 | 0.00 | 83 | 1027.8 |
| 20260905180016 | 16 | 101 | 6.4 | 9.7 | 0.00 | 0.00 | 0.00 | 86 | 1027.6 |
| 20260905173015 | 17 | 120 | 6.4 | 11.3 | 0.00 | 0.00 | 0.00 | 80 | 1027.3 |
| 20260905171515 | 17 | 128 | 8.0 | 12.9 | 0.00 | 0.00 | 0.00 | 79 | 1027.2 |
| 20260905170015 | 17 | 131 | 8.0 | 11.3 | 0.00 | 0.00 | 0.00 | 78 | 1027.2 |
| 20260905164514 | 18 | 149 | 9.7 | 14.5 | 0.00 | 0.00 | 0.00 | 78 | 1027.1 |
| 20260905163015 | 18 | 150 | 11.3 | 17.7 | 0.00 | 0.00 | 0.00 | 75 | 1027.1 |
| 20260905161515 | 18 | 143 | 14.5 | 17.7 | 0.00 | 0.00 | 0.00 | 72 | 1026.9 |
| 20260905160015 | 20 | 178 | 9.7 | 16.1 | 0.00 | 0.00 | 0.00 | 68 | 1026.9 |
| 20260905154515 | 19 | 196 | 9.7 | 16.1 | 0.00 | 0.00 | 0.00 | 71 | 1026.8 |
| 20260905151515 | 19 | 185 | 12.9 | 17.7 | 0.00 | 0.00 | 0.00 | 69 | 1026.7 |
| 20260905150016 | 19 | 198 | 11.3 | 20.9 | 0.00 | 0.00 | 0.00 | 69 | 1026.7 |
| 20260905144514 | 19 | 182 | 14.5 | 25.7 | 0.00 | 0.00 | 0.00 | 72 | 1026.5 |
| 20260905141515 | 20 | 187 | 11.3 | 22.5 | 0.00 | 0.00 | 0.00 | 74 | 1026.4 |
| 20260905140015 | 19 | 177 | 19.3 | 30.6 | 0.00 | 0.00 | 0.00 | 76 | 1026.4 |
| 20260905134514 | 19 | 166 | 17.7 | 30.6 | 0.00 | 0.00 | 0.00 | 77 | 1026.8 |
| 20260905130017 | 18 | 140 | 17.7 | 25.7 | 0.00 | 0.00 | 0.00 | 79 | 1026.8 |
| 20260905124514 | 18 | 141 | 20.9 | 30.6 | 0.00 | 0.00 | 0.00 | 79 | 1027.0 |
| 20260905121513 | 18 | 143 | 14.5 | 25.7 | 0.00 | 0.00 | 0.00 | 80 | 1027.1 |
| 20260905120018 | 18 | 144 | 19.3 | 30.6 | 0.00 | 0.00 | 0.00 | 81 | 1027.3 |
| 20260905114514 | 18 | 131 | 11.3 | 20.9 | 0.00 | 0.00 | 0.00 | 80 | 1027.2 |
| 20260905110014 | 18 | 144 | 12.9 | 20.9 | 0.00 | 0.00 | 0.00 | 82 | 1027.0 |
| 20260905104513 | 18 | 149 | 14.5 | 27.4 | 0.00 | 0.00 | 0.00 | 84 | 1027.0 |